Content
SEND FEEDBACK

Daily
Averages
Monthly
Summary
United States of America

MANCHESTER CENTER, VERMONT


Home > North America > United States > Vermont
Elevation: 950 feet     Latitude: 43 10N     Longitude: 073 04W

WEATHER
 
SELECT A DAY
Number of Records: 182,102;   Date Range: 12/9/98 - 10/20/14
 
SHARE

PRINT THIS DATA

[ ← Previous Day ]
WEATHER ALMANAC - AUGUST 9, 2014
[ Next Day → ]
[ °C ]   °F
Weather ElementAverageHighLow
Temperature58.5 °F80.1 °F (2:54 pm)50 °F (2:54 am)
Dewpoint52.9 °F60.1 °F (10:54 am)48 °F (3:54 am)
Humidity84.5 %97 % (6:54 am)45 % (2:54 pm)
Barometer30.11 in30.16 in (7:54 am)30.09 in (6:49 am)
Wind Speed0.9 mph9.2 mph (2:54 pm)
Weather ElementAverage
Visibility5.5 mi
Wind DirectionNNE (37.1 °)

Weather ElementTotal
Precipitation---
Growing Degree Days15.1 (Base 50)
Averaged from 42 records on August 9, 2014
WEATHER CONDITIONS BREAKOUT
WIND DIRECTION BREAKOUT
WEATHER BY HOUR - AUGUST 9, 2014
[ °C ]   °F
Local TimeTemperatureDewpointHumidityBarometerVisibilityWind DirectionWind SpeedGust SpeedPrecipitationEventsConditions
1:54 AM54.0 °F52.0 °F93 %30.09 in8.0 miCalmClear
2:34 AM53.1 °F51.1 °F93 %30.09 in2.5 miESE (120°)3.5 mphClear
2:41 AM53.1 °F51.1 °F93 %30.09 in9.0 miCalmClear
2:54 AM53.1 °F51.1 °F93 %30.09 in6.0 miCalmClear
3:20 AM52.0 °F50.0 °F93 %30.09 in2.5 miCalmScattered Clouds
3:22 AM52.0 °F50.0 °F93 %30.10 in1.2 miCalmMostly Cloudy
3:30 AM51.1 °F50.0 °F96 %30.09 in0.8 miCalmMist
3:33 AM52.0 °F51.1 °F97 %30.09 in1.5 miCalmScattered Clouds
3:39 AM51.1 °F50.0 °F96 %30.10 in3.0 miCalmMostly Cloudy
3:54 AM52.0 °F50.0 °F93 %30.09 in2.5 miCalmScattered Clouds
4:19 AM51.1 °F50.0 °F96 %30.10 in1.8 miCalmScattered Clouds
4:25 AM51.1 °F50.0 °F96 %30.10 in2.0 miCalmMostly Cloudy
4:35 AM51.1 °F50.0 °F96 %30.11 in4.0 miCalmScattered Clouds
4:39 AM51.1 °F48.9 °F92 %30.11 in1.8 miCalmScattered Clouds
4:43 AM52.0 °F50.0 °F93 %30.11 in0.8 miCalmMist
4:54 AM50.0 °F48.9 °F96 %30.10 in0.5 miCalmFogFog
5:27 AM50.0 °F48.9 °F96 %30.12 in1.2 miCalmMostly Cloudy
5:50 AM50.0 °F48.2 °F94 %30.13 in0.8 miCalmMist
5:54 AM50.0 °F48.9 °F96 %30.12 in2.5 miCalmPartly Cloudy
6:01 AM50.0 °F48.0 °F93 %30.13 in8.0 miCalmPartly Cloudy
6:13 AM50.0 °F48.9 °F96 %30.14 in1.8 miCalmPartly Cloudy
6:24 AM50.0 °F48.9 °F96 %30.14 in4.0 miCalmPartly Cloudy
6:40 AM50.0 °F48.9 °F96 %30.14 in1.5 miCalmScattered Clouds
6:44 AM50.0 °F48.9 °F96 %30.14 in0.8 miCalmMist
6:54 AM53.1 °F52.0 °F96 %30.14 in1.5 miCalmScattered Clouds
6:59 AM54.0 °F53.1 °F97 %30.15 in3.0 miCalmScattered Clouds
7:54 AM59.0 °F55.9 °F90 %30.16 in10.0 miCalmClear
8:54 AM66.0 °F59.0 °F78 %30.15 in10.0 miCalmClear
9:54 AM70.0 °F59.0 °F68 %30.15 in10.0 miCalmClear
10:54 AM72.0 °F57.9 °F61 %30.14 in10.0 miVariable3.5 mphClear
11:54 AM73.0 °F55.9 °F55 %30.13 in10.0 miCalmClear
1:54 PM79.0 °F55.9 °F45 %30.10 in10.0 miNNW (340°)6.9 mphClear
2:54 PM80.1 °F57.0 °F45 %30.09 in10.0 miNNW (330°)9.2 mphClear
3:54 PM79.0 °F57.9 °F48 %30.09 in10.0 miWNW (300°)5.8 mphClear
4:54 PM80.1 °F59.0 °F48 %30.09 in10.0 miVariable3.5 mphPartly Cloudy
5:54 PM77.0 °F57.0 °F50 %30.09 in10.0 miWNW (300°)3.5 mphClear
6:54 PM73.9 °F59.0 °F59 %30.10 in10.0 miCalmMostly Cloudy
7:54 PM66.9 °F60.1 °F79 %30.10 in10.0 miCalmClear
8:54 PM63.0 °F59.0 °F87 %30.12 in10.0 miSouth (170°)3.5 mphClear
9:54 PM60.1 °F57.9 °F93 %30.13 in10.0 miCalmClear
10:54 PM59.0 °F57.0 °F93 %30.13 in10.0 miCalmClear
11:54 PM61.0 °F55.9 °F83 %30.14 in10.0 miCalmMostly Cloudy
Hourly data recorded from KDDH, located miles away from Manchester Center, Vermont







STORIES FROM OUR PARTNERS